Other Public Products
Issued by NWS Grand Forks, ND

Home | Current Version | Previous Version | Graphics & Text | Print | Product List | Glossary On
Versions: 1 2 3 4 5 6 7 8 9 10 11 12 13 14 15 16 17 18 19 20 21 22 23 24 25 26 27 28 29 30 31 32 33 34 35 36 37 38 39 40 41 42 43 44 45 46 47 48 49 50
000
FPUS83 KFGF 171610
OPUFGF
PRAIRIE TO PINES WEATHER ROUNDUP
NATIONAL WEATHER SERVICE EASTERN NORTH DAKOTA/GRAND FORKS ND
1000 AM CST FRI NOV 17 2017

 **SATELLITE DATA USED TO AUGMENT SKY COVER AT AUTOMATED STATIONS**
 *****  WEATHER ACROSS EASTERN NORTH DAKOTA  *****

CITY           SKY/WX    TMP DP  RH WIND       PRES   REMARKS
GRAND FORKS    CLOUDY    29  20  69 NW15      29.67R WCI  18
GRND FORKS AFB FAIR      27  18  67 N16       29.67R WCI  15
GRND FORKS NWS   N/A     28 N/A N/A N9          N/A  WCI  20
BUXTON         NOT AVBL
DEVILS LAKE    FAIR      17  12  80 NW13      29.70R WCI   4
FARGO          FAIR      35  29  78 W5        29.64R
WAHPETON ARPT  NOT AVBL
$$

 *****  WEATHER ACROSS CENTRAL AND WESTERN NORTH DAKOTA  *****

CITY           SKY/WX    TMP DP  RH WIND       PRES   REMARKS
JAMESTOWN      FAIR      27  20  75 NW14      29.68R WCI  16
BISMARCK       FAIR      34  25  69 N7        29.72R
MINOT          FAIR      18  10  71 W10       29.70R WCI   6
MINOT AFB      FAIR      15   9  75 NW9       29.70R WCI   4
GARRISON         N/A     21  14  74 NW8       29.69S WCI  11
WILLISTON      FAIR      19  11  70 CALM      29.71R
DICKINSON      FAIR      31  25  78 NW6       29.65R
HETTINGER      CLOUDY    35  28  75 NW3       29.68R
$$

 *****  OTHER OBSERVATIONS NORTHEAST NORTH DAKOTA  *****

CITY           SKY/WX    TMP DP  RH WIND       PRES   REMARKS
WALHALLA       FAIR      19  12  73 W12       29.67R WCI   7
LANGDON        FAIR      16  12  86 NW20      29.65R WCI  -1
CAVALIER       FAIR      19  12  73 W9        29.67S WCI   9
GRAFTON        FAIR      23  16  74 NW18      29.69S WCI   9
CANDO          FAIR      16  14  93 NW13      29.71R WCI   2
FORT TOTTEN      N/A     19  12  74 NW7       29.95S WCI  10
ROLLA          FAIR      12   9  85 W5        29.67R WCI   4
RUGBY          FAIR      12  10  92 W15       29.69S WCI  -4
 ***** THE ABOVE OBSERVATIONS ARE NON NWS ARE NOT QUALITY
        CONTROLLED AND MAY MIS-REPORT RAIN FOR SNOW...
$$

 *****  OTHER OBSERVATIONS SOUTHEAST NORTH DAKOTA *****

CITY           SKY/WX    TMP DP  RH WIND       PRES   REMARKS
COOPERSTOWN    FAIR      27  19  74 NW16      29.66F WCI  14
VALLEY CITY    MIX PCPN  30  25  80 NW16      29.68R WCI  19
OAKES            N/A     36  32  87 MISG      29.66R
GWINNER          N/A     37  30  75 NW10G17   29.65R
SHEYENNE NWR     N/A     34  30  85 N7        29.95S
BUFFALO        NOT AVBL
WYNDMERE       NOT AVBL
 ***** THE ABOVE OBSERVATIONS ARE NON NWS ARE NOT QUALITY
       CONTROLLED AND MAY MIS-REPORT RAIN FOR SNOW...
$$

  *****  WEATHER ACROSS NORTHERN MINNESOTA  *****

CITY           SKY/WX    TMP DP  RH WIND       PRES   REMARKS
FLAG ISLAND    CLOUDY    34  28  80 SW9       29.58R
WARROAD        CLOUDY    34  30  86 W10       29.60S
ROSEAU         CLOUDY    34  28  80 W12       29.61R
HALLOCK        FAIR      23  18  80 NW13      29.66S WCI  11
THF RVR FALLS  PTSUNNY   32  28  86 W12       29.64S WCI  23
HALSTAD        NOT AVBL
FOSSTON        FAIR      32  28  86 SW8       29.64S WCI  25
BAUDETTE       FAIR      34  28  79 S8        29.59F
WASKISH        FAIR      34  28  80 SW6       29.61S
CROOKSTON      FAIR      34  28  80 NW13      29.67R WCI  25
$$
  *****  WEATHER ACROSS CENTRAL AND WEST MINNESOTA  *****

CITY           SKY/WX    TMP DP  RH WIND       PRES   REMARKS
BEMIDJI        PTSUNNY   32  29  90 SW3       29.63R
PARK RAPIDS    MIX PCPN  32  29  88 SE21G28   29.58F WCI  20
WADENA         LGT RAIN  34  28  80 CALM      29.65S
DETROIT LAKES  FAIR      34  32  93 CALM      29.62R
MOORHEAD       FAIR      34  28  80 CALM      29.65S
FERGUS FALLS   LGT RAIN  34  30  86 SE16G23   29.60F WCI  23
ELBOW LAKE     FAIR      35  31  84 CALM      29.65S HAZE
MORRIS MN      FAIR      36  30  80 E3        29.63S
STAPLES        PTSUNNY   34  28  80 CALM      29.66F
WHEATON        FAIR      36  28  75 E12       29.62F
$$
  *****  WEATHER ELSEWHERE ACROSS MINNESOTA  *****

CITY           SKY/WX    TMP DP  RH WIND       PRES   REMARKS
DULUTH         FRZ DRZL  31  31 100 S7        29.70R FOG     WCI  24
INTRNTL FALLS  CLOUDY    33  28  81 SW8       29.62F HAZE
ELY            LGT SNOW  30  28  93 SW9       29.68R WCI  22
CLOQUET        CLOUDY    32  30  93 CALM      29.70S FOG
BRAINERD       PTSUNNY   36  29  75 CALM      29.67R
HIBBING        LGT SNOW  31  28  89 S6        29.67S VSB 1
ALEXANDRIA     FAIR      36  30  79 E6        29.64S
SAINT CLOUD    CLOUDY    37  32  82 S7        29.66S
MINNEAPOLIS    DRIZZLE   36  36 100 S9        29.68F FOG
$$

  *****  WEATHER ACROSS SOUTH DAKOTA  *****

CITY           SKY/WX    TMP DP  RH WIND       PRES   REMARKS
SIOUX FALLS    PTSUNNY   48  42  80 SW3       29.58S
BROOKINGS      FAIR      39  34  82 W6        29.59F
WATERTOWN      CLOUDY    36  32  85 NW7       29.61R
HURON          LGT RAIN  37  31  78 NE9       29.63R
SISSETON         N/A     34  31  88 S5        29.60F
ABERDEEN       CLOUDY    41  33  73 N13       29.67R
MITCHELL       CLOUDY    38  32  79 N17       29.62R
PIERRE         LGT RAIN  39  39 100 NW8       29.69S
MOBRIDGE       PTSUNNY   41  31  67 W6        29.68R
RAPID CITY     CLOUDY    37  35  92 CALM      29.69F
$$

  *****  SOME WEATHER IN NEARBY STATES *****

CITY           SKY/WX    TMP DP  RH WIND       PRES   REMARKS
GLASGOW MT     PTSUNNY   25  25 100 E9        29.62S FOG     WCI  15
GREAT FALLS MT FAIR      36  22  56 SW14      29.61R
CHEYENNE WY    FAIR      47  36  65 CALM      29.68S
SCOTTSBLUFF NE FAIR      44  26  49 E9        29.70F
OMAHA NE       DRIZZLE   54  49  83 S13       29.62F FOG
DES MOINES IA  LGT RAIN  46  40  79 SE15      29.73F
DAVENPORT IA   CLOUDY    37  32  82 S16G22    29.90F
CHICAGO IL     CLOUDY    39  31  72 S15       30.02F
EAU CLAIRE WI  CLOUDY    36  29  75 S15       29.75F
LA CROSSE WI   CLOUDY    39  32  76 S17       29.80F
$$

  *****  SOME NATIONAL WEATHER *****

CITY           SKY/WX    TMP DP  RH WIND       PRES   REMARKS
LA GUARDIA NY  FAIR      44  27  51 NW20G25   30.06F
RALEIGH NC     FAIR      48  30  49 NE7       30.24F
ATLANTA GA     FAIR      58  39  49 E9        30.19F
NEW ORLEANS LA FAIR      74  54  49 SE8       30.15F
OKLAHOMA CITY  FAIR      68  59  73 S25G32    29.76F
ALBUQUERQUE NM PTSUNNY   57  20  23 VRB6      30.09R
SALT LAKE CITY RAIN      40  38  93 N10       29.81F FOG
LOS ANGELES CA CLOUDY    64  62  93 W13       30.06R
BOISE ID       FAIR      39  30  70 NW8       29.92R
SEATTLE WA     CLOUDY    42  38  85 S12       29.98R
$$

*** WEATHER ACROSS MANITOBA...SASKATCHEWAN AND ONTARIO ***
                ***ONTARIO***

CITY           SKY/WX    TMP DP  RH WIND       PRES   REMARKS
GERALDTON      LGT SNOW  25  23  93 SE12G20   29.74F DRFTSNOWWCI  14
THUNDER BAY    LGT SNOW  36  32  87 S9        29.72F
SIOUX LOOKOUT  FLURRIES  32  28  86 S13       29.55F WCI  22
TORONTO        PTSUNNY   32  19  59 VRB3      30.25F
BIG TROUT LK   LGT SNOW  19  19 100 S23G33    29.43F VSB 1   WCI   2
PICKLE LAKE    FLURRIES  28  25  86 S17G26    29.51S WCI  16
DRYDEN         CLOUDY    32  28  86 SW14G20   29.54F WCI  22
KENORA         CLOUDY    32  28  86 SW16G22   29.55S WCI  21
$$
                *** MANITOBA***

CITY           SKY/WX    TMP DP  RH WIND       PRES   REMARKS
BRANDON        MOSUNNY   10   3  72 W7        29.66R WCI   0
DAUPHIN        SUNNY     16  10  79 W17G24    29.63R WCI   0
ISLAND LAKE    NOT AVBL
PILOT MOUND      N/A     14   9  79 W9          N/A  WCI   2
THE PAS        NOT AVBL
THOMPSON       FLURRIES  10   5  79 W13       29.35R WCI  -5
WINNIPEG       MOSUNNY   18  10  73 W12       29.66R WCI   5
LYNN LAKE      LGT SNOW   5   3  92 W8        29.38R WCI  -8
CHURCHILL      LGT SNOW  14  10  85 SE14G22   29.36F BLWGSNOWWCI  -1
$$
                ***SASKATCHEWAN***

CITY           SKY/WX    TMP DP  RH WIND       PRES   REMARKS
ESTEVAN        MOSUNNY   12   7  79 W10       29.68R WCI  -1
KINDERSLEY     CLOUDY     5   1  85 W8        29.66R WCI  -8
LLOYDMINSTER   MOCLDY     3   1  92 W10       29.64R WCI -12
PRINCE ALBERT  FLURRIES  12   7  79 W9        29.65R WCI   0
REGINA         MOSUNNY    5   0  78 W7        29.66S WCI  -7
YORKTON        SUNNY      9   3  78 W10       29.64R WCI  -6
N. BATTLEFORD  CLOUDY     7   1  78 W5        29.68R W


USA.gov is the U.S. government's official web portal to all federal, state and local government web resources and services.